Barrow Island Airport


Codes: YBWX/BWB
Name: Barrow Island Airport
City:
Country: Australia
Elevation: 26 ft.

Photos at Barrow Island Airport


   Photos courtesy of SpottingLog. You can add your own sightings and photos by signing up for a free trial today.



No photos found.

Weather at Barrow Island Airport


Time (UTC)DescriptionTempratureWindCloud coverageVisibilityPressureHumidity
21-Feb-2024 03:00Broken Clouds28°C2 mph, NE62%10000m1006hPa75%
21-Feb-2024 06:00Broken Clouds29°C9 mph, N64%10000m1005hPa73%
21-Feb-2024 09:00Broken Clouds29°C9 mph, N82%10000m1005hPa74%
21-Feb-2024 12:00Overcast Clouds28°C11 mph, NW91%10000m1006hPa77%
21-Feb-2024 15:00Overcast Clouds28°C13 mph, W100%10000m1007hPa77%
21-Feb-2024 18:00Overcast Clouds29°C9 mph, SW100%10000m1005hPa77%
21-Feb-2024 21:00Overcast Clouds29°C2 mph, E88%10000m1005hPa76%
22-Feb-2024 00:00Overcast Clouds29°C2 mph, SE93%10000m1007hPa74%
22-Feb-2024 03:00Broken Clouds30°C2 mph, S83%10000m1006hPa68%
22-Feb-2024 06:00Broken Clouds30°C7 mph, NW84%10000m1004hPa63%
22-Feb-2024 09:00Few Clouds31°C9 mph, NW18%10000m1004hPa65%
22-Feb-2024 12:00Scattered Clouds29°C13 mph, W44%10000m1005hPa79%
22-Feb-2024 15:00Broken Clouds28°C2 mph, E83%10000m1007hPa82%
22-Feb-2024 18:00Broken Clouds29°C7 mph, N80%10000m1005hPa76%
22-Feb-2024 21:00Broken Clouds29°C11 mph, NE51%10000m1006hPa77%
23-Feb-2024 00:00Broken Clouds28°C13 mph, NE52%10000m1008hPa86%
23-Feb-2024 03:00Overcast Clouds29°C16 mph, NE92%10000m1008hPa88%
23-Feb-2024 06:00Overcast Clouds29°C16 mph, NE96%10000m1006hPa86%
23-Feb-2024 09:00Overcast Clouds29°C20 mph, NE87%10000m1005hPa88%
23-Feb-2024 12:00Broken Clouds28°C18 mph, NE55%10000m1007hPa91%
23-Feb-2024 15:00Broken Clouds28°C13 mph, NE81%10000m1009hPa91%
23-Feb-2024 18:00Broken Clouds28°C11 mph, NE82%10000m1008hPa89%
23-Feb-2024 21:00Few Clouds28°C11 mph, NE14%10000m1008hPa87%
24-Feb-2024 00:00Few Clouds28°C13 mph, NE14%10000m1009hPa86%
24-Feb-2024 03:00Scattered Clouds28°C16 mph, NE38%10000m1009hPa85%
24-Feb-2024 06:00Scattered Clouds28°C13 mph, NE26%10000m1007hPa85%
24-Feb-2024 09:00Scattered Clouds28°C13 mph, NE32%10000m1006hPa86%
24-Feb-2024 12:00Few Clouds28°C13 mph, N22%10000m1008hPa90%
24-Feb-2024 15:00Broken Clouds28°C11 mph, N58%10000m1009hPa87%
24-Feb-2024 18:00Scattered Clouds27°C7 mph, N33%10000m1008hPa87%
24-Feb-2024 21:00Broken Clouds27°C4 mph, N74%10000m1008hPa87%
25-Feb-2024 00:00Scattered Clouds27°C2 mph, NE43%10000m1009hPa85%
25-Feb-2024 03:00Scattered Clouds27°C4 mph, NE47%10000m1009hPa83%
25-Feb-2024 06:00Scattered Clouds28°C11 mph, NW30%10000m1006hPa79%
25-Feb-2024 09:00Few Clouds28°C18 mph, NW23%10000m1006hPa85%
25-Feb-2024 12:00Broken Clouds27°C20 mph, NW57%10000m1007hPa88%
25-Feb-2024 15:00Scattered Clouds28°C13 mph, W34%10000m1009hPa86%
25-Feb-2024 18:00Scattered Clouds27°C13 mph, W34%10000m1007hPa86%
25-Feb-2024 21:00Few Clouds27°C11 mph, SW14%10000m1008hPa86%
26-Feb-2024 00:00Scattered Clouds27°C9 mph, SW29%10000m1009hPa85%